{"data":{"norad_id":41937,"intl_designator":"2017-004A","name":"SBIRS GEO-4 (USA 273)","alt_names":[],"object_type":"PAYLOAD","status":"ACTIVE","operator":null,"country":"US","launch_date":"2017-01-21","launch_site_code":"AFETR","launch_vehicle":null,"mission":null,"orbit_class":"UNKNOWN","rcs_meters":null,"size_class":null,"mass_kg":null,"dimensions":null,"purposes":["comms"],"wikipedia_slug":null,"has_3d_model":false,"image_url":null,"decayed_at":null,"tle_current":{"epoch":"2026-09-20T03:08:06.184896Z","epoch_age_seconds":57700,"freshness":"FRESH","line1":"1 41937U 17004A   26263.13062714 -.00000169  00000+0  00000+0 0  9994","line2":"2 41937   2.4277  45.4248 0001987 115.9102 223.5189  1.00272497 35548","mean_motion":1.00272497,"eccentricity":0.0001987,"inclination_deg":2.4277,"raan_deg":45.4248,"arg_perigee_deg":115.9102,"mean_anomaly_deg":223.5189,"bstar":0,"rev_number":3554,"period_min":1436.0867068066,"perigee_km":35778.017270345,"apogee_km":35794.773455506,"semimajor_km":42164.532362925,"source":"CELESTRAK","updated_at":"2026-09-20T09:00:35.250871Z"}}}